• In Belarus
  • List of Countries
  • For 7 days
  • Water Temperature
  • Satellite Maps
  • Weather Map
  • Weather Widgets
  • user-avatar
    Login

    Hourly Weather Rogowek

    Today, 21 February, Thursday

    Time Temperature Precipitation Wind Pressure Humidity
    00:00 +1°C° 0 mm 3 mps 743 mmHg 89%
    01:00 +1°C° 0 mm 3 mps 744 mmHg 92%
    02:00 +1°C° 0 mm 3 mps 744 mmHg 92%
    03:00 +1°C° 0 mm 3 mps 744 mmHg 93%
    04:00 +1°C° 0 mm 3 mps 744 mmHg 93%
    05:00 +1°C° 0 mm 3 mps 744 mmHg 93%
    06:00 +1°C° 0 mm 3 mps 744 mmHg 93%
    07:00 0°C° 0 mm 4 mps 744 mmHg 93%
    08:00 +1°C° 0 mm 4 mps 744 mmHg 90%
    09:00 +2°C° 0 mm 5 mps 744 mmHg 87%
    10:00 +3°C° 0 mm 5 mps 744 mmHg 84%
    11:00 +5°C° 0.1 mm 5 mps 744 mmHg 79%
    12:00 +5°C° 0.1 mm 5 mps 743 mmHg 74%
    13:00 +5°C° 0.1 mm 6 mps 743 mmHg 69%
    14:00 +6°C° 0.3 mm 5 mps 743 mmHg 73%
    15:00 +5°C° 0.3 mm 5 mps 743 mmHg 77%
    16:00 +5°C° 0.3 mm 5 mps 742 mmHg 81%
    17:00 +3°C° 0.3 mm 5 mps 742 mmHg 82%
    18:00 +3°C° 0.3 mm 5 mps 742 mmHg 83%
    19:00 +3°C° 0.3 mm 6 mps 742 mmHg 84%
    20:00 +3°C° 0.4 mm 5 mps 741 mmHg 85%
    21:00 +3°C° 0.4 mm 5 mps 741 mmHg 86%
    22:00 +3°C° 0.4 mm 5 mps 741 mmHg 88%
    23:00 +3°C° 1 mm 5 mps 741 mmHg 89%

    Tomorrow, 22 February, Friday

    Time Temperature Precipitation Wind Pressure Humidity
    00:00 +3°C° 1 mm 5 mps 741 mmHg 91%
    01:00 +3°C° 1 mm 5 mps 740 mmHg 93%
    02:00 +3°C° 0.4 mm 5 mps 741 mmHg 92%
    03:00 +2°C° 0.4 mm 5 mps 741 mmHg 92%
    04:00 +2°C° 0.4 mm 5 mps 741 mmHg 92%
    05:00 -1°C° 0.1 mm 6 mps 742 mmHg 88%
    06:00 -2°C° 0.1 mm 6 mps 743 mmHg 85%
    07:00 -4°C° 0.1 mm 7 mps 745 mmHg 81%
    08:00 -4°C° 0 mm 6 mps 746 mmHg 75%
    09:00 -4°C° 0 mm 6 mps 748 mmHg 69%
    10:00 -4°C° 0 mm 6 mps 749 mmHg 62%
    11:00 -4°C° 0 mm 6 mps 750 mmHg 57%
    12:00 -4°C° 0 mm 5 mps 750 mmHg 52%
    13:00 -2°C° 0 mm 5 mps 751 mmHg 46%
    14:00 -4°C° 0 mm 5 mps 752 mmHg 47%
    15:00 -4°C° 0 mm 5 mps 752 mmHg 47%
    16:00 -5°C° 0 mm 5 mps 752 mmHg 48%
    17:00 -5°C° 0 mm 5 mps 753 mmHg 49%
    18:00 -6°C° 0 mm 5 mps 753 mmHg 50%
    19:00 -6°C° 0 mm 5 mps 754 mmHg 52%
    20:00 -7°C° 0 mm 4 mps 754 mmHg 49%
    21:00 -7°C° 0 mm 4 mps 755 mmHg 47%
    22:00 -7°C° 0 mm 4 mps 755 mmHg 44%
    23:00 -7°C° 0 mm 4 mps 756 mmHg 43%

    Day after tomorrow, 23 February, Saturday

    Time Temperature Precipitation Wind Pressure Humidity
    00:00 -7°C° 0 mm 4 mps 756 mmHg 41%
    01:00 -6°C° 0 mm 3 mps 756 mmHg 39%
    02:00 -6°C° 0 mm 3 mps 756 mmHg 39%
    03:00 -6°C° 0 mm 3 mps 756 mmHg 40%
    04:00 -6°C° 0 mm 2 mps 756 mmHg 40%
    05:00 -6°C° 0 mm 2 mps 756 mmHg 41%
    06:00 -6°C° 0 mm 2 mps 757 mmHg 41%
    07:00 -6°C° 0 mm 2 mps 757 mmHg 42%
    08:00 -5°C° 0 mm 2 mps 757 mmHg 39%
    09:00 -5°C° 0 mm 2 mps 758 mmHg 36%
    10:00 -5°C° 0 mm 3 mps 758 mmHg 34%
    11:00 -3°C° 0 mm 2 mps 758 mmHg 31%
    12:00 -3°C° 0 mm 2 mps 757 mmHg 29%
    13:00 -2°C° 0 mm 2 mps 757 mmHg 26%
    14:00 -2°C° 0 mm 2 mps 757 mmHg 27%
    15:00 -2°C° 0 mm 2 mps 757 mmHg 28%
    16:00 -2°C° 0 mm 2 mps 757 mmHg 29%
    17:00 -3°C° 0 mm 2 mps 757 mmHg 32%
    18:00 -1°C° 0 mm 1 mps 757 mmHg 35%
    19:00 -2°C° 0 mm 1 mps 757 mmHg 38%
    20:00 -3°C° 0 mm 0 mps 757 mmHg 38%
    21:00 -3°C° 0 mm 0 mps 757 mmHg 38%
    22:00 -3°C° 0 mm 0 mps 757 mmHg 38%
    23:00 -3°C° 0 mm 0 mps 756 mmHg 37%

    24 February, Sunday

    Time Temperature Precipitation Wind Pressure Humidity
    00:00 -2°C° 0 mm 1 mps 756 mmHg 37%
    01:00 -2°C° 0 mm 1 mps 756 mmHg 37%
    02:00 -2°C° 0 mm 1 mps 756 mmHg 36%
    03:00 -1°C° 0 mm 1 mps 755 mmHg 35%
    04:00 -3°C° 0 mm 2 mps 755 mmHg 34%
    05:00 -3°C° 0 mm 2 mps 755 mmHg 34%
    06:00 -3°C° 0 mm 2 mps 754 mmHg 35%
    07:00 -4°C° 0 mm 2 mps 754 mmHg 35%
    08:00 -3°C° 0 mm 2 mps 754 mmHg 32%
    09:00 -2°C° 0 mm 3 mps 754 mmHg 30%
    10:00 -1°C° 0 mm 3 mps 754 mmHg 27%
    11:00 0°C° 0 mm 3 mps 753 mmHg 28%
    12:00 0°C° 0 mm 3 mps 753 mmHg 29%
    13:00 0°C° 0 mm 4 mps 752 mmHg 30%
    14:00 +1°C° 0 mm 3 mps 752 mmHg 33%
    15:00 +1°C° 0 mm 3 mps 751 mmHg 37%
    16:00 +1°C° 0 mm 3 mps 751 mmHg 40%
    17:00 +1°C° 0 mm 3 mps 751 mmHg 45%
    18:00 +1°C° 0 mm 3 mps 751 mmHg 50%
    19:00 -1°C° 0 mm 4 mps 750 mmHg 55%
    20:00 -1°C° 0.1 mm 4 mps 750 mmHg 58%
    21:00 -1°C° 0.1 mm 4 mps 750 mmHg 62%
    22:00 0°C° 0.1 mm 3 mps 750 mmHg 65%
    23:00 -1°C° 0.1 mm 4 mps 749 mmHg 70%

    25 February, Monday

    Time Temperature Precipitation Wind Pressure Humidity
    00:00 -1°C° 0.1 mm 4 mps 749 mmHg 75%
    01:00 -1°C° 0.1 mm 4 mps 749 mmHg 79%
    02:00 -1°C° 0.1 mm 4 mps 749 mmHg 84%
    03:00 -1°C° 0.1 mm 4 mps 749 mmHg 88%
    04:00 -1°C° 0.1 mm 4 mps 749 mmHg 93%
    05:00 -1°C° 0 mm 4 mps 749 mmHg 93%
    06:00 0°C° 0 mm 4 mps 750 mmHg 94%
    07:00 0°C° 0 mm 5 mps 750 mmHg 95%
    08:00 0°C° 0 mm 5 mps 750 mmHg 91%
    09:00 0°C° 0 mm 5 mps 751 mmHg 86%
    10:00 +1°C° 0 mm 5 mps 752 mmHg 82%
    11:00 +1°C° 0 mm 5 mps 752 mmHg 76%
    12:00 +2°C° 0 mm 5 mps 752 mmHg 70%
    13:00 +3°C° 0 mm 5 mps 752 mmHg 64%
    14:00 +3°C° 0 mm 5 mps 752 mmHg 64%
    15:00 +4°C° 0 mm 4 mps 752 mmHg 65%
    16:00 +4°C° 0 mm 3 mps 752 mmHg 65%
    17:00 +3°C° 0 mm 3 mps 752 mmHg 69%
    18:00 +2°C° 0 mm 3 mps 752 mmHg 74%
    19:00 +1°C° 0 mm 3 mps 752 mmHg 78%
    20:00 0°C° 0 mm 3 mps 752 mmHg 80%
    21:00 0°C° 0 mm 3 mps 752 mmHg 81%
    22:00 +1°C° 0 mm 2 mps 752 mmHg 83%
    23:00 +1°C° 0 mm 2 mps 752 mmHg 83%

    26 February, Tuesday

    Time Temperature Precipitation Wind Pressure Humidity
    00:00 -1°C° 0 mm 3 mps 751 mmHg 82%
    01:00 -1°C° 0 mm 3 mps 751 mmHg 82%
    02:00 -1°C° 0 mm 4 mps 750 mmHg 80%
    03:00 -1°C° 0 mm 4 mps 749 mmHg 78%
    04:00 -1°C° 0 mm 5 mps 749 mmHg 75%
    05:00 -1°C° 0 mm 5 mps 748 mmHg 77%
    06:00 -1°C° 0 mm 5 mps 748 mmHg 78%
    07:00 -1°C° 0 mm 5 mps 747 mmHg 79%
    08:00 0°C° 0 mm 5 mps 747 mmHg 78%
    09:00 +1°C° 0 mm 5 mps 747 mmHg 77%
    10:00 +3°C° 0 mm 5 mps 746 mmHg 77%
    11:00 +3°C° 0 mm 5 mps 746 mmHg 74%
    12:00 +5°C° 0 mm 5 mps 745 mmHg 72%
    13:00 +6°C° 0 mm 5 mps 744 mmHg 70%
    14:00 +5°C° 0 mm 6 mps 744 mmHg 70%
    15:00 +5°C° 0 mm 6 mps 743 mmHg 71%
    16:00 +5°C° 0 mm 6 mps 743 mmHg 71%
    17:00 +5°C° 0 mm 5 mps 743 mmHg 74%
    18:00 +5°C° 0 mm 5 mps 743 mmHg 77%
    19:00 +3°C° 0 mm 5 mps 743 mmHg 80%
    20:00 +3°C° 0 mm 5 mps 743 mmHg 81%
    21:00 +3°C° 0 mm 5 mps 743 mmHg 82%
    22:00 +3°C° 0 mm 5 mps 743 mmHg 83%
    23:00 +3°C° 0 mm 5 mps 743 mmHg 87%
    Show more